SPACEBEE-2

Last updated on Sat Sep 10 2022 00:03:39 GMT+0000 (Coordinated Universal Time)

1 43141U 18004AG 22249.99215889 .13616117 25214-5 83879-3 0 9999 2 43141 97.3560 344.6117 0016906 267.0300 92.9065 16.40015958259984

Satellite not in orbit

SPACEBEE-2